DW0479 Weather Reports


time (UTC)temp
F
wind
direction
speed
knots
gust
knots
rain 1hr
in
rain 24hr
in
rain mn
in
humidity
%
barometer
mb
20260506170910 91 83 3.5 9.6 0.00 0.00 0.00 45 1016.7
20260506165910 90 119 3.5 7.0 0.00 0.00 0.00 47 1016.8
20260506164913 90 157 2.6 7.8 0.00 0.00 0.00 47 1016.9
20260506163901 89 194 3.5 8.7 0.00 0.00 0.00 48 1017.0
20260506162859 89 212 4.3 9.6 0.00 0.00 0.00 49 1017.0
20260506162339 89 236 3.5 8.7 0.00 0.00 0.00 49 1017.1
20260506160858 89 210 3.5 8.7 0.00 0.00 0.00 51 1017.0
20260506155858 89 173 4.3 9.6 0.00 0.00 0.00 50 1017.1
20260506154858 89 232 3.5 10.4 0.00 0.00 0.00 51 1017.0
20260506153859 87 123 4.3 9.6 0.00 0.00 0.00 54 1017.1
20260506152859 86 206 4.3 8.7 0.00 0.00 0.00 57 1017.2
20260506151856 86 200 5.2 9.6 0.00 0.00 0.00 59 1017.2
20260506150856 85 171 4.3 7.8 0.00 0.00 0.00 62 1017.2
20260506145858 85 155 3.5 8.7 0.00 0.00 0.00 62 1017.2
20260506144856 84 160 4.3 9.6 0.00 0.00 0.00 64 1017.2
20260506143856 84 151 2.6 7.8 0.00 0.00 0.00 68 1017.3
20260506142852 82 177 3.5 8.7 0.00 0.00 0.00 70 1017.4
20260506141851 82 157 3.5 7.8 0.00 0.00 0.00 73 1017.4
20260506140852 81 169 3.5 7.8 0.00 0.00 0.00 73 1017.4
20260506140336 81 139 2.6 7.8 0.00 0.00 0.00 76 1017.3
20260506134853 80 166 3.5 7.8 0.00 0.00 0.00 76 1017.3
20260506133851 79 109 4.3 8.7 0.00 0.00 0.00 78 1017.3
20260506132852 79 185 3.5 8.7 0.00 0.00 0.00 79 1017.2
20260506131852 77 160 3.5 7.8 0.00 0.00 0.00 83 1017.1
20260506130854 76 162 2.6 6.1 0.00 0.00 0.00 84 1017.0
20260506130325 75 133 2.6 6.1 0.00 0.00 0.00 86 1016.9
20260506124842 74 162 1.7 4.3 0.00 0.00 0.00 88 1016.8
20260506123842 72 132 0.9 3.5 0.00 0.00 0.00 90 1016.8
20260506123758 70 71 0.0 0.9 0.00 0.00 0.00 90 1016.8
20260506121846 69 71 0.0 0.9 0.00 0.00 0.00 90 1016.7
20260506120839 67 343 0.0 0.9 0.00 0.00 0.00 91 1016.6
20260506115836 66 343 0.0 0.0 0.00 0.00 0.00 92 1016.6
20260506114838 65 341 0.0 0.0 0.00 0.00 0.00 92 1016.5
20260506113835 64 317 0.0 0.9 0.00 0.00 0.00 93 1016.6
20260506112836 62 162 0.0 0.0 0.00 0.00 0.00 93 1016.4
20260506111829 62 203 0.0 0.0 0.00 0.00 0.00 93 1016.3
20260506110830 61 117 0.0 0.0 0.00 0.00 0.00 93 1016.2
20260506110259 61 105 0.0 0.0 0.00 0.00 0.00 93 1015.9
20260506104829 61 106 0.0 0.0 0.00 0.00 0.00 92 1016.1
20260506103830 61 106 0.0 0.0 0.00 0.00 0.00 92 1015.9
20260506102820 61 106 0.0 0.0 0.00 0.00 0.00 91 1016.0
20260506101818 61 105 0.0 0.0 0.00 0.00 0.00 91 1015.9
20260506100819 61 106 0.0 0.0 0.00 0.00 0.00 92 1015.9
20260506095818 61 105 0.0 0.0 0.00 0.00 0.00 92 1015.8
20260506094819 61 105 0.0 0.0 0.00 0.00 0.00 91 1015.8
20260506093818 61 106 0.0 0.0 0.00 0.00 0.00 91 1015.8
20260506092816 61 105 0.0 0.0 0.00 0.00 0.00 92 1015.6
20260506092252 61 106 0.0 0.0 0.00 0.00 0.00 92 1015.7
20260506090815 61 105 0.0 0.0 0.00 0.00 0.00 92 1015.5
20260506085817 61 106 0.0 0.0 0.00 0.00 0.00 91 1015.5
20260506084815 61 105 0.0 0.0 0.00 0.00 0.00 91 1015.6
20260506083813 61 106 0.0 0.0 0.00 0.00 0.00 91 1015.6
20260506082816 61 106 0.0 0.0 0.00 0.00 0.00 90 1015.7
20260506081813 61 105 0.0 0.0 0.00 0.00 0.00 91 1015.7
20260506080814 61 105 0.0 0.0 0.00 0.00 0.00 91 1015.6
20260506072805 62 105 0.0 0.0 0.00 0.00 0.00 91 1015.8
20260506071805 62 106 0.0 0.0 0.00 0.00 0.00 91 1015.8
20260506071237 62 106 0.0 0.0 0.00 0.00 0.00 90 1015.8
20260506061749 62 105 0.0 0.0 0.00 0.00 0.00 88 1016.2
20260506061704 63 105 0.0 0.0 0.00 0.00 0.00 88 1016.3
20260506050744 64 105 0.0 0.0 0.00 0.00 0.00 87 1016.7
20260506044745 65 105 0.0 0.0 0.00 0.00 0.00 85 1016.7
20260506043742 65 106 0.0 0.0 0.00 0.00 0.00 85 1016.7
20260506042742 65 105 0.0 0.9 0.00 0.00 0.00 85 1016.6
20260506041743 66 106 0.0 0.0 0.00 0.00 0.00 84 1016.5
20260506040744 67 106 0.0 0.0 0.00 0.00 0.00 82 1016.6
20260506040712 67 106 0.0 0.0 0.00 0.00 0.00 81 1016.6
20260506034728 67 106 0.0 0.9 0.00 0.00 0.00 81 1016.7
20260506034206 68 106 0.0 0.9 0.00 0.00 0.00 81 1016.7
20260506032729 68 105 0.0 1.7 0.00 0.00 0.00 81 1016.7
20260506032207 68 106 0.0 0.0 0.00 0.00 0.00 80 1016.8
20260506031210 68 105 0.0 0.9 0.00 0.00 0.00 80 1016.7
20260506030208 69 106 0.0 0.0 0.00 0.00 0.00 79 1016.7
20260506024723 69 106 0.0 0.0 0.00 0.00 0.00 77 1016.7
20260506023722 70 106 0.0 1.7 0.00 0.00 0.00 75 1016.7
20260506022719 71 105 0.9 2.6 0.00 0.00 0.00 74 1016.5
20260506022157 71 106 0.9 2.6 0.00 0.00 0.00 74 1016.4
20260506020723 71 106 0.9 2.6 0.00 0.00 0.00 73 1016.2
20260506015717 71 102 0.9 1.7 0.00 0.00 0.00 73 1016.2
20260506014716 72 102 0.9 2.6 0.00 0.00 0.00 71 1016.0
20260506013720 73 102 0.9 2.6 0.00 0.00 0.00 69 1015.9
20260506012713 74 92 2.6 6.1 0.00 0.00 0.00 68 1015.8
20260506011711 74 93 1.7 5.2 0.00 0.00 0.00 67 1015.7
20260506010711 75 106 2.6 7.0 0.00 0.00 0.00 66 1015.6
20260506005711 75 119 2.6 6.1 0.00 0.00 0.00 65 1015.5
20260506005151 76 123 2.6 7.8 0.00 0.00 0.00 63 1015.2
20260506003709 76 103 3.5 10.4 0.00 0.00 0.00 62 1015.1
20260506003207 77 73 4.3 9.6 0.00 0.00 0.00 61 1015.1
20260506001705 77 121 2.6 7.8 0.00 0.00 0.00 60 1015.0
20260506001140 77 117 4.3 11.3 0.00 0.00 0.00 60 1015.1
20260505235705 78 96 5.2 12.2 0.00 0.00 0.00 60 1014.8
20260505234704 78 127 3.5 7.0 0.00 0.00 0.00 60 1014.7
20260505233707 79 105 3.5 11.3 0.00 0.00 0.00 59 1014.7
20260505232701 79 119 3.5 8.7 0.00 0.00 0.00 58 1014.7
20260505231658 80 117 6.1 13.9 0.00 0.00 0.00 57 1014.8
20260505230700 80 155 7.0 13.9 0.00 0.00 0.00 57 1014.7
20260505230147 81 96 5.2 12.2 0.00 0.00 0.00 57 1014.6
20260505224700 82 132 6.1 11.3 0.00 0.00 0.00 56 1014.6
20260505223652 83 101 6.1 11.3 0.00 0.00 0.00 55 1014.6
20260505222654 83 109 5.2 10.4 0.00 0.00 0.00 53 1014.4
20260505221653 85 86 4.3 10.4 0.00 0.00 0.00 53 1014.5
20260505220654 85 100 5.2 11.3 0.00 0.00 0.00 52 1014.3
20260505215654 86 125 3.5 9.6 0.00 0.00 0.00 51 1014.3
20260505214640 85 106 4.3 11.3 0.00 0.00 0.00 51 1014.3
20260505213639 86 59 4.3 8.7 0.00 0.00 0.00 51 1014.2
20260505212640 86 90 4.3 11.3 0.00 0.00 0.00 51 1014.2
20260505211639 86 133 4.3 11.3 0.00 0.00 0.00 51 1014.3
20260505210641 86 59 2.6 7.8 0.00 0.00 0.00 50 1014.2
20260505205633 85 131 3.5 7.8 0.00 0.00 0.00 51 1014.2
20260505205113 85 155 3.5 8.7 0.00 0.00 0.00 50 1014.2
20260505203632 86 113 3.5 7.8 0.00 0.00 0.00 50 1014.3
20260505203548 85 137 5.2 10.4 0.00 0.00 0.00 52 1014.3
20260505201618 85 150 6.1 15.6 0.00 0.00 0.00 52 1014.3
20260505200617 85 106 4.3 12.2 0.00 0.00 0.00 51 1014.4
20260505195618 87 106 3.5 7.0 0.00 0.00 0.00 45 1014.5
20260505194619 88 51 2.6 7.0 0.00 0.00 0.00 48 1014.5
20260505193619 86 119 4.3 10.4 0.00 0.00 0.00 49 1014.7
20260505192615 87 19 4.3 9.6 0.00 0.00 0.00 48 1014.8
20260505192055 87 146 5.2 10.4 0.00 0.00 0.00 50 1014.9
20260505190617 87 117 4.3 11.3 0.00 0.00 0.00 49 1015.0
20260505185614 86 79 2.6 7.8 0.00 0.00 0.00 52 1015.1
20260505184613 84 117 2.6 7.0 0.00 0.00 0.00 52 1015.2
20260505183614 84 61 2.6 7.0 0.00 0.00 0.00 53 1015.3
20260505182615 84 79 3.5 7.8 0.00 0.00 0.00 53 1015.4
20260505181615 84 84 2.6 8.7 0.00 0.00 0.00 52 1015.6
20260505180614 84 98 2.6 8.7 0.00 0.00 0.00 53 1015.7
20260505175615 85 59 3.5 7.8 0.00 0.00 0.00 52 1015.7
20260505174613 85 31 4.3 10.4 0.00 0.00 0.00 51 1015.9
20260505174050 87 67 3.5 7.8 0.00 0.00 0.00 51 1015.8
20260505172616 87 92 4.3 8.7 0.00 0.00 0.00 50 1016.0
20260505171613 87 29 3.5 7.8 0.00 0.00 0.00 53 1016.0